This is the latest recevied weather packets stored in our database for station/object 9A3XK-13. If no packets are shown the sender has not sent any weather packets the latest 1 day(s).
| Time | Temp. | Humidity | Pressure | Rain* | Wind** | Luminosity | Snow |
|---|---|---|---|---|---|---|---|
| 1777998016 | 27.22° C | 36% | 1010.3 hPa | 0 mm | 1.34 m/s, 270° | 89 W/m² | - |
| 1777997716 | 27.22° C | 35% | 1010.3 hPa | 0 mm | 1.79 m/s, 270° | 239 W/m² | - |
| 1777997415 | 27.22° C | 35% | 1010.3 hPa | 0 mm | 1.79 m/s, 270° | 252 W/m² | - |
| 1777997115 | 27.22° C | 34% | 1010.3 hPa | 0 mm | 1.79 m/s, 270° | 244 W/m² | - |
| 1777996816 | 27.22° C | 33% | 1010.3 hPa | 0 mm | 0.89 m/s, 270° | 283 W/m² | - |
| 1777996516 | 27.22° C | 32% | 1010.3 hPa | 0 mm | 0.89 m/s, 270° | 96 W/m² | - |
| 1777996215 | 27.78° C | 31% | 1010.3 hPa | 0 mm | 0.89 m/s, 270° | 63 W/m² | - |
| 1777995919 | 27.78° C | 32% | 1010.3 hPa | 0 mm | 1.79 m/s, 270° | 295 W/m² | - |
| 1777995615 | 27.78° C | 32% | 1010.4 hPa | 0 mm | 1.34 m/s, 270° | 265 W/m² | - |
| 1777995319 | 27.78° C | 31% | 1010.3 hPa | 0 mm | 1.79 m/s, 270° | 364 W/m² | - |
| 1777995015 | 27.78° C | 33% | 1010.3 hPa | 0 mm | 2.24 m/s, 270° | 384 W/m² | - |
| 1777994719 | 27.78° C | 33% | 1010.3 hPa | 0 mm | 1.34 m/s, 270° | 389 W/m² | - |
| 1777994419 | 27.78° C | 32% | 1010.4 hPa | 0 mm | 2.24 m/s, 293° | 412 W/m² | - |
| 1777994118 | 27.78° C | 32% | 1010.4 hPa | 0 mm | 2.24 m/s, 293° | 412 W/m² | - |
| 1777993816 | 27.78° C | 32% | 1010.5 hPa | 0 mm | 1.79 m/s, 293° | 407 W/m² | - |
| 1777993515 | 27.78° C | 32% | 1010.5 hPa | 0 mm | 2.24 m/s, 293° | 450 W/m² | - |
| 1777993215 | 27.78° C | 31% | 1010.5 hPa | 0 mm | 2.24 m/s, 293° | 428 W/m² | - |
| 1777992915 | 27.78° C | 31% | 1010.5 hPa | 0 mm | 1.34 m/s, 270° | 412 W/m² | - |
| 1777992616 | 27.22° C | 31% | 1010.5 hPa | 0 mm | 0.89 m/s, 248° | 527 W/m² | - |
| 1777992315 | 27.22° C | 30% | 1010.6 hPa | 0 mm | 1.34 m/s, 315° | 294 W/m² | - |
| 1777992015 | 27.22° C | 30% | 1010.5 hPa | 0 mm | 1.79 m/s, 293° | 274 W/m² | - |
| 1777991715 | 27.78° C | 30% | 1010.5 hPa | 0 mm | 2.24 m/s, 293° | 367 W/m² | - |
| 1777991415 | 27.22° C | 31% | 1010.6 hPa | 0 mm | 1.34 m/s, 270° | 380 W/m² | - |
| 1777991115 | 27.22° C | 30% | 1010.6 hPa | 0 mm | 1.34 m/s, 293° | 416 W/m² | - |
| 1777990815 | 27.78° C | 30% | 1010.7 hPa | 0 mm | 1.79 m/s, 270° | 345 W/m² | - |
* Rain latest hour (hover to see other rain measurements)
** Current wind speed in m/s (hover to see current wind gust speed)